#timestamp,LO_Frequency,Hit,StdDev 
1578690015.1,286046995.3,N
1578690016.0,286046995.3,N
1578690035.8,286046993.8,N
1578690055.6,286046993.1,N
1578690075.5,286046991.8,N
1578690095.3,286046995.0,N
1578690115.2,286047002.0,N
1578690135.9,286047002.5,N
1578690155.7,286047000.0,N
1578690175.6,286046998.9,N
1578690195.4,286046994.7,N
1578690215.2,286046994.8,N
1578690235.1,286047000.3,N
1578690236.0,286047000.3,N
1578690255.8,286047006.3,N
1578690275.7,286047004.8,N
1578690295.5,286047004.6,N
1578690315.3,286047005.5,N
1578690335.2,286047003.2,N
1578690355.0,286047000.0,N
1578690355.9,286047000.0,N
1578690375.8,286047001.8,N
1578690395.6,286047002.9,N
1578690415.4,286047001.8,N
1578690435.3,286047004.1,N
1578690455.1,286046996.4,N
1578690475.9,286046999.1,N
1578690495.7,286046999.4,N
1578690515.5,286047000.5,N
1578690535.4,286047003.7,N
1578690555.2,286046998.4,N
1578690575.0,286047001.9,N
1578690575.9,286047001.9,N
1578690595.8,286047004.5,N
1578690615.6,286047005.1,N
1578690635.5,286047010.7,Y
1578690655.3,286047005.9,P
1578690675.1,286046999.3,N
1578690695.9,286047005.1,N
1578690715.7,286047000.3,N
1578690735.5,286046996.2,N
1578690755.4,286046998.3,N
1578690775.2,286047002.7,N
1578690795.1,286046998.7,N
1578690796.0,286046998.7,N
1578690815.8,286047002.8,N
1578690835.6,286046998.3,N
1578690855.5,286046998.2,N
1578690875.3,286046993.3,N
1578690895.2,286046995.5,N
1578690915.9,286047000.6,N
1578690935.7,286047004.6,N
1578690955.6,286047011.1,Y
1578690975.4,286047007.8,P
1578690995.3,286047006.5,N
1578691015.1,286047006.6,N
1578691016.0,286047006.6,N
1578691035.8,286047006.6,N
1578691055.7,286047006.7,N
1578691075.5,286047006.2,N
1578691095.4,286047011.3,Y
1578691115.2,286047004.8,P
1578691135.0,286047000.6,N
1578691135.9,286047000.6,N
1578691155.8,286047001.2,N
1578691175.6,286046998.7,N
1578691195.4,286047001.6,N
1578691215.3,286046999.8,N
1578691235.1,286047007.4,Y
1578691255.9,286047002.2,P
1578691275.7,286047000.4,N
1578691295.5,286046997.4,P
1578691315.4,286046994.0,Y
1578691335.2,286046990.2,P
1578691355.1,286046989.5,N
1578691356.0,286046989.5,N
1578691375.8,286046987.9,N
1578691395.6,286046988.3,N
1578691415.5,286046984.0,Y
1578691435.3,286046991.5,P
1578691455.2,286046985.7,P
1578691475.9,286046993.0,N
1578691495.7,286046994.4,N
1578691515.6,286046994.1,N
1578691535.4,286046995.8,N
1578691555.2,286046997.4,N
1578691575.1,286046995.7,N
1578691576.0,286046995.7,N
1578691595.8,286046998.6,N
1578691615.7,286046997.7,N
1578691635.5,286046995.0,N
1578691655.3,286046993.7,N
1578691675.2,286046990.7,N
1578691695.0,286046991.0,N
1578691695.9,286046991.0,N
1578691715.8,286046992.4,N
1578691735.6,286046994.1,N
1578691755.4,286046997.8,N
1578691775.3,286047000.8,N
1578691795.1,286046998.4,N
1578691815.8,286046993.7,N
1578691835.7,286046994.6,N
1578691855.5,286046986.3,Y
1578691875.4,286046999.2,P
1578691895.2,286046995.2,N
1578691915.0,286046994.9,N
1578691915.9,286046994.9,N
1578691935.8,286046996.4,N
1578691955.6,286046997.1,N
1578691975.4,286046994.8,Y
1578691995.3,286046999.6,P
1578692015.1,286047005.0,N
1578692035.9,286047005.7,N
1578692055.7,286047002.1,N
1578692075.5,286047007.5,N
1578692095.4,286047006.8,N
1578692115.2,286047004.2,N
1578692135.0,286047005.2,N
1578692135.9,286047005.2,N
1578692155.8,286047006.4,N
1578692175.6,286047007.1,N
1578692195.5,286047007.5,N
1578692215.3,286047003.4,N
1578692235.1,286047000.9,N
1578692255.9,286046999.3,N
1578692275.7,286047002.1,N
1578692295.6,286047001.3,N
1578692315.4,286047007.6,N
1578692335.2,286047007.1,N
1578692355.1,286047003.3,N
1578692356.0,286047003.3,N
1578692375.8,286047004.9,N
1578692395.6,286047002.9,N
1578692415.5,286047002.4,N
1578692435.3,286046997.4,N
1578692455.2,286046993.7,N
1578692475.9,286046998.1,N
1578692495.7,286047000.0,N
1578692515.6,286047007.5,N
1578692535.4,286047004.0,N
1578692555.2,286047002.5,N
1578692575.1,286046999.0,N
1578692576.0,286046999.0,N
1578692595.8,286047001.6,N
1578692615.7,286047006.6,N
1578692635.5,286047005.5,N
1578692655.3,286047005.4,N
1578692675.2,286047006.1,N
1578692695.9,286047008.8,N
1578692715.7,286047008.0,N
1578692735.6,286047009.1,N
1578692755.4,286047008.3,N
1578692775.2,286047006.6,N
1578692795.1,286046998.5,N
1578692796.0,286046998.5,N
1578692815.8,286047001.3,N
1578692835.7,286046998.2,N
1578692855.5,286046995.4,N
1578692875.3,286046999.3,N
1578692895.2,286046999.5,N
1578692915.0,286047000.8,N
1578692915.9,286047000.8,N
1578692935.8,286047001.0,N
1578692955.6,286047000.8,N
1578692975.4,286046999.5,N
1578692995.3,286046998.5,N
1578693015.1,286047003.8,N
1578693035.8,286047003.1,N
1578693055.7,286047000.7,N
1578693075.5,286047003.2,N
1578693095.3,286047005.3,N
1578693115.2,286047004.0,N
1578693135.0,286046999.1,N
1578693135.9,286046999.1,N
1578693155.8,286046998.1,N
1578693175.6,286047000.5,N
1578693195.4,286047003.2,N
1578693215.3,286047003.0,N
1578693235.1,286047003.2,N
1578693255.9,286047005.5,N
1578693275.7,286047002.5,N
1578693295.5,286047002.5,N
1578693315.4,286047000.0,N
1578693335.2,286047000.0,N
1578693355.0,286047005.7,N
1578693355.9,286047005.7,N
1578693375.8,286047007.6,N
1578693395.6,286047006.7,N
1578693415.5,286047012.2,Y
1578693435.3,286047009.8,P
1578693455.1,286047009.0,N
1578693475.9,286047006.6,N
1578693495.7,286047010.6,Y
1578693515.5,286047000.2,P
1578693535.4,286047003.4,N
1578693555.2,286047006.1,N
1578693575.1,286047003.9,N
1578693576.0,286047003.9,N
1578693595.8,286047004.1,N
